| time (UTC) | temp F | wind direction | speed MPH | gust MPH | rain 1hr in | rain 24hr in | rain mn in | humidity % | barometer mb |
| 20260903052844 | 66 | 177 | 8.0 | 16.0 | 0.00 | 0.00 | 0.00 | 84 | 1016.0 |
| 20260903051845 | 66 | 177 | 8.0 | 16.0 | 0.00 | 0.00 | 0.00 | 83 | 1016.0 |
| 20260903050844 | 66 | 178 | 8.0 | 14.0 | 0.00 | 0.00 | 0.00 | 82 | 1016.0 |
| 20260903045846 | 66 | 175 | 8.0 | 13.0 | 0.00 | 0.00 | 0.00 | 82 | 1015.7 |
| 20260903044844 | 66 | 170 | 9.0 | 16.0 | 0.00 | 0.00 | 0.00 | 82 | 1015.7 |
| 20260903043844 | 67 | 170 | 9.0 | 16.0 | 0.00 | 0.00 | 0.00 | 82 | 1016.1 |
| 20260903040844 | 66 | 185 | 8.0 | 15.0 | 0.00 | 0.00 | 0.00 | 80 | 1016.6 |
| 20260903035845 | 66 | 188 | 8.0 | 15.0 | 0.00 | 0.00 | 0.00 | 79 | 1016.2 |
| 20260903034844 | 66 | 183 | 8.0 | 14.0 | 0.00 | 0.00 | 0.00 | 79 | 1016.2 |
| 20260903033844 | 66 | 176 | 7.0 | 13.0 | 0.00 | 0.00 | 0.00 | 78 | 1016.1 |
| 20260903032844 | 66 | 172 | 8.0 | 14.0 | 0.00 | 0.00 | 0.00 | 78 | 1016.5 |
| 20260903025845 | 66 | 172 | 7.0 | 14.0 | 0.00 | 0.00 | 0.00 | 78 | 1017.1 |
| 20260903024844 | 65 | 178 | 6.0 | 10.0 | 0.00 | 0.00 | 0.00 | 79 | 1017.1 |
| 20260903023844 | 65 | 173 | 6.0 | 9.0 | 0.00 | 0.00 | 0.00 | 79 | 1017.0 |
| 20260903022844 | 65 | 173 | 5.0 | 9.0 | 0.00 | 0.00 | 0.00 | 81 | 1016.8 |
| 20260903021844 | 65 | 172 | 5.0 | 8.0 | 0.00 | 0.00 | 0.00 | 81 | 1016.8 |
| 20260903015845 | 65 | 175 | 5.0 | 8.0 | 0.00 | 0.00 | 0.00 | 81 | 1017.0 |
| 20260903013844 | 65 | 176 | 5.0 | 9.0 | 0.00 | 0.00 | 0.00 | 82 | 1017.2 |
| 20260903012844 | 65 | 173 | 5.0 | 8.0 | 0.00 | 0.00 | 0.00 | 82 | 1017.5 |
| 20260903011844 | 65 | 178 | 6.0 | 10.0 | 0.00 | 0.00 | 0.00 | 82 | 1017.5 |
| 20260903004844 | 66 | 176 | 7.0 | 11.0 | 0.00 | 0.00 | 0.00 | 79 | 1017.6 |
| 20260903003844 | 66 | 174 | 8.0 | 13.0 | 0.00 | 0.00 | 0.00 | 78 | 1017.6 |
| 20260903002844 | 66 | 172 | 9.0 | 15.0 | 0.00 | 0.00 | 0.00 | 78 | 1017.8 |
| 20260903001845 | 66 | 170 | 8.0 | 13.0 | 0.00 | 0.00 | 0.00 | 79 | 1017.8 |
| 20260903000846 | 65 | 168 | 7.0 | 12.0 | 0.00 | 0.00 | 0.00 | 79 | 1017.7 |
| 20260902235844 | 65 | 167 | 7.0 | 13.0 | 0.00 | 0.00 | 0.00 | 79 | 1018.1 |
| 20260902233844 | 65 | 169 | 8.0 | 12.0 | 0.00 | 0.00 | 0.00 | 79 | 1018.2 |
| 20260902232844 | 65 | 163 | 7.0 | 11.0 | 0.00 | 0.00 | 0.00 | 80 | 1018.5 |
| 20260902230846 | 64 | 174 | 4.0 | 7.0 | 0.00 | 0.00 | 0.00 | 83 | 1018.7 |
| 20260902225844 | 64 | 177 | 3.0 | 7.0 | 0.00 | 0.00 | 0.00 | 83 | 1018.7 |
| 20260902224846 | 64 | 158 | 4.0 | 6.0 | 0.00 | 0.00 | 0.00 | 83 | 1018.7 |
| 20260902223846 | 64 | 155 | 5.0 | 9.0 | 0.00 | 0.00 | 0.00 | 83 | 1018.6 |
| 20260902222845 | 64 | 166 | 4.0 | 6.0 | 0.00 | 0.00 | 0.00 | 83 | 1018.8 |
| 20260902221845 | 64 | 163 | 4.0 | 6.0 | 0.00 | 0.00 | 0.00 | 83 | 1018.8 |
| 20260902214845 | 64 | 156 | 4.0 | 6.0 | 0.00 | 0.00 | 0.00 | 83 | 1018.7 |
| 20260902213845 | 64 | 155 | 4.0 | 7.0 | 0.00 | 0.00 | 0.00 | 82 | 1018.7 |
| 20260902210846 | 64 | 161 | 4.0 | 6.0 | 0.00 | 0.00 | 0.00 | 81 | 1019.1 |
| 20260902205846 | 65 | 160 | 4.0 | 7.0 | 0.00 | 0.00 | 0.00 | 81 | 1019.1 |
| 20260902204846 | 65 | 162 | 4.0 | 7.0 | 0.00 | 0.00 | 0.00 | 81 | 1019.1 |
| 20260902200845 | 65 | 153 | 4.0 | 9.0 | 0.00 | 0.00 | 0.00 | 81 | 1019.2 |
| 20260902194845 | 65 | 157 | 3.0 | 5.0 | 0.00 | 0.00 | 0.00 | 82 | 1019.3 |
| 20260902193845 | 65 | 156 | 3.0 | 5.0 | 0.00 | 0.00 | 0.00 | 81 | 1019.3 |
| 20260902191846 | 66 | 156 | 3.0 | 4.0 | 0.00 | 0.00 | 0.00 | 80 | 1019.3 |
| 20260902185846 | 66 | 157 | 3.0 | 6.0 | 0.00 | 0.00 | 0.00 | 80 | 1019.2 |
| 20260902184845 | 66 | 164 | 3.0 | 6.0 | 0.00 | 0.00 | 0.00 | 80 | 1019.2 |
| 20260902183846 | 66 | 168 | 3.0 | 6.0 | 0.00 | 0.00 | 0.00 | 79 | 1019.2 |
| 20260902182846 | 67 | 164 | 3.0 | 6.0 | 0.00 | 0.00 | 0.00 | 79 | 1019.2 |
| 20260902181846 | 67 | 173 | 3.0 | 6.0 | 0.00 | 0.00 | 0.00 | 78 | 1019.2 |
| 20260902180846 | 67 | 174 | 4.0 | 8.0 | 0.00 | 0.00 | 0.00 | 77 | 1019.2 |
| 20260902175846 | 67 | 175 | 5.0 | 8.0 | 0.00 | 0.00 | 0.00 | 78 | 1019.2 |
| 20260902174846 | 67 | 174 | 5.0 | 8.0 | 0.00 | 0.00 | 0.00 | 78 | 1019.2 |
| 20260902173846 | 68 | 174 | 5.0 | 10.0 | 0.00 | 0.00 | 0.00 | 77 | 1019.1 |
| 20260902172846 | 68 | 171 | 6.0 | 9.0 | 0.00 | 0.00 | 0.00 | 77 | 1019.2 |
| 20260902171845 | 68 | 174 | 5.0 | 9.0 | 0.00 | 0.00 | 0.00 | 76 | 1019.2 |
| 20260902170845 | 68 | 176 | 5.0 | 9.0 | 0.00 | 0.00 | 0.00 | 77 | 1019.2 |
| 20260902165846 | 68 | 174 | 5.0 | 10.0 | 0.00 | 0.00 | 0.00 | 78 | 1019.2 |
| 20260902164846 | 68 | 174 | 4.0 | 7.0 | 0.00 | 0.00 | 0.00 | 78 | 1019.2 |
| 20260902161846 | 68 | 183 | 6.0 | 10.0 | 0.00 | 0.00 | 0.00 | 77 | 1019.7 |
| 20260902160847 | 68 | 193 | 4.0 | 8.0 | 0.00 | 0.00 | 0.00 | 79 | 1019.7 |
| 20260902155846 | 68 | 190 | 5.0 | 10.0 | 0.00 | 0.00 | 0.00 | 77 | 1019.7 |
| 20260902153846 | 69 | 202 | 6.0 | 13.0 | 0.00 | 0.00 | 0.00 | 76 | 1019.7 |
| 20260902152847 | 69 | 205 | 4.0 | 12.0 | 0.00 | 0.00 | 0.00 | 74 | 1019.7 |
| 20260902151847 | 69 | 209 | 5.0 | 9.0 | 0.00 | 0.00 | 0.00 | 73 | 1019.7 |
| 20260902150845 | 69 | 197 | 6.0 | 15.0 | 0.00 | 0.00 | 0.00 | 72 | 1019.7 |
| 20260902145847 | 70 | 212 | 6.0 | 12.0 | 0.00 | 0.00 | 0.00 | 70 | 1019.7 |
| 20260902144846 | 71 | 199 | 5.0 | 12.0 | 0.00 | 0.00 | 0.00 | 70 | 1019.7 |
| 20260902143846 | 71 | 196 | 6.0 | 14.0 | 0.00 | 0.00 | 0.00 | 68 | 1019.7 |
| 20260902141846 | 71 | 189 | 6.0 | 11.0 | 0.00 | 0.00 | 0.00 | 70 | 1019.7 |
| 20260902140847 | 70 | 185 | 7.0 | 14.0 | 0.00 | 0.00 | 0.00 | 70 | 1019.7 |
| 20260902135847 | 71 | 176 | 7.0 | 13.0 | 0.00 | 0.00 | 0.00 | 70 | 1019.7 |
| 20260902134846 | 71 | 185 | 6.0 | 11.0 | 0.00 | 0.00 | 0.00 | 69 | 1019.7 |
| 20260902133847 | 71 | 182 | 7.0 | 11.0 | 0.00 | 0.00 | 0.00 | 68 | 1019.7 |
| 20260902132847 | 70 | 189 | 6.0 | 12.0 | 0.00 | 0.00 | 0.00 | 72 | 1019.7 |
| 20260902130846 | 70 | 185 | 6.0 | 12.0 | 0.00 | 0.00 | 0.00 | 72 | 1019.7 |
| 20260902125848 | 70 | 198 | 5.0 | 11.0 | 0.00 | 0.00 | 0.00 | 72 | 1019.7 |
| 20260902124846 | 70 | 175 | 8.0 | 13.0 | 0.00 | 0.00 | 0.00 | 73 | 1019.7 |
| 20260902123846 | 71 | 183 | 7.0 | 12.0 | 0.00 | 0.00 | 0.00 | 70 | 1019.6 |
| 20260902122846 | 71 | 188 | 6.0 | 12.0 | 0.00 | 0.00 | 0.00 | 73 | 1019.7 |
| 20260902121848 | 71 | 178 | 5.0 | 10.0 | 0.00 | 0.00 | 0.00 | 73 | 1019.7 |
| 20260902120848 | 70 | 179 | 5.0 | 11.0 | 0.00 | 0.00 | 0.00 | 74 | 1019.8 |
| 20260902115846 | 70 | 187 | 5.0 | 12.0 | 0.00 | 0.00 | 0.00 | 77 | 1020.1 |
| 20260902112847 | 69 | 184 | 8.0 | 13.0 | 0.00 | 0.00 | 0.00 | 76 | 1020.2 |
| 20260902111847 | 69 | 183 | 8.0 | 12.0 | 0.00 | 0.00 | 0.00 | 77 | 1020.2 |
| 20260902105847 | 69 | 187 | 7.0 | 11.0 | 0.00 | 0.00 | 0.00 | 77 | 1020.2 |
| 20260902104846 | 69 | 195 | 6.0 | 10.0 | 0.00 | 0.00 | 0.00 | 80 | 1020.2 |
| 20260902103846 | 69 | 191 | 7.0 | 19.0 | 0.00 | 0.00 | 0.00 | 80 | 1020.2 |
| 20260902101847 | 69 | 197 | 6.0 | 13.0 | 0.00 | 0.00 | 0.00 | 82 | 1020.2 |
| 20260902100846 | 68 | 183 | 8.0 | 13.0 | 0.00 | 0.00 | 0.00 | 83 | 1020.2 |
| 20260902095848 | 68 | 189 | 7.0 | 12.0 | 0.00 | 0.00 | 0.00 | 84 | 1020.2 |
| 20260902094847 | 67 | 196 | 6.0 | 10.0 | 0.00 | 0.00 | 0.00 | 85 | 1020.2 |
| 20260902093847 | 67 | 177 | 7.0 | 14.0 | 0.00 | 0.00 | 0.00 | 87 | 1020.2 |
| 20260902092848 | 66 | 185 | 6.0 | 11.0 | 0.00 | 0.00 | 0.00 | 87 | 1020.2 |
| 20260902090847 | 66 | 177 | 7.0 | 14.0 | 0.00 | 0.00 | 0.00 | 87 | 1020.2 |
| 20260902084847 | 65 | 187 | 5.0 | 10.0 | 0.00 | 0.00 | 0.00 | 88 | 1020.1 |
| 20260902083848 | 65 | 197 | 4.0 | 8.0 | 0.00 | 0.00 | 0.00 | 89 | 1020.2 |
| 20260902080849 | 63 | 183 | 6.0 | 9.0 | 0.00 | 0.00 | 0.00 | 90 | 1019.8 |
| 20260902075847 | 63 | 169 | 6.0 | 10.0 | 0.00 | 0.00 | 0.00 | 89 | 1019.7 |
| 20260902073847 | 62 | 178 | 6.0 | 11.0 | 0.00 | 0.00 | 0.00 | 91 | 1019.7 |
| 20260902072847 | 62 | 187 | 6.0 | 11.0 | 0.00 | 0.00 | 0.00 | 91 | 1019.7 |
| 20260902071847 | 61 | 185 | 6.0 | 10.0 | 0.00 | 0.00 | 0.00 | 91 | 1019.7 |
| 20260902070847 | 60 | 183 | 6.0 | 10.0 | 0.00 | 0.00 | 0.00 | 91 | 1019.7 |
| 20260902065848 | 60 | 177 | 7.0 | 10.0 | 0.00 | 0.00 | 0.00 | 92 | 1019.7 |
| 20260902064848 | 60 | 183 | 6.0 | 11.0 | 0.00 | 0.00 | 0.00 | 93 | 1019.7 |
| 20260902063847 | 59 | 177 | 5.0 | 8.0 | 0.00 | 0.00 | 0.00 | 94 | 1019.7 |
| 20260902062847 | 58 | 174 | 5.0 | 8.0 | 0.00 | 0.00 | 0.00 | 94 | 1019.7 |
| 20260902061847 | 58 | 171 | 4.0 | 7.0 | 0.00 | 0.00 | 0.00 | 95 | 1019.7 |
| 20260902055847 | 56 | 174 | 4.0 | 7.0 | 0.00 | 0.00 | 0.00 | 96 | 1019.4 |
| 20260902054847 | 56 | 173 | 4.0 | 6.0 | 0.00 | 0.00 | 0.00 | 96 | 1019.4 |
| 20260902053848 | 56 | 177 | 3.0 | 5.0 | 0.00 | 0.00 | 0.00 | 96 | 1019.4 |